FW8731 Weather Reports


time (UTC)temp
C
wind
direction
speed
KPH
gust
KPH
rain 1hr
cm
rain 24hr
cm
rain mn
cm
humidity
%
barometer
mb
20260506050104 16 51 0.0 1.6 0.00 0.00 0.00 66 1015.5
20260506044545 16 0 0.0 3.2 0.00 0.00 0.00 66 1015.3
20260506043043 17 51 0.0 3.2 0.00 0.00 0.00 63 1015.0
20260506041552 17 0 0.0 3.2 0.00 0.00 0.00 62 1014.8
20260506040045 18 56 0.0 3.2 0.00 0.00 0.00 58 1014.6
20260506034550 19 0 0.0 1.6 0.00 0.00 0.00 54 1014.3
20260506033040 20 56 1.6 3.2 0.00 0.00 0.00 50 1014.0
20260506031536 21 56 0.0 3.2 0.00 0.00 0.00 49 1013.9
20260506030043 21 0 0.0 3.2 0.00 0.00 0.00 47 1013.4
20260506024545 22 56 0.0 6.4 0.00 0.00 0.00 44 1013.2
20260506023042 23 0 1.6 4.8 0.00 0.00 0.00 42 1013.0
20260506021538 25 275 0.0 3.2 0.00 0.00 0.00 37 1013.0
20260506020037 26 0 0.0 6.4 0.00 0.00 0.00 35 1012.7
20260506014536 27 337 1.6 4.8 0.00 0.00 0.00 33 1012.4
20260506013051 27 304 0.0 9.7 0.00 0.00 0.00 34 1012.3
20260506011546 27 317 0.0 6.4 0.00 0.00 0.00 31 1012.2
20260506010048 27 5 1.6 6.4 0.00 0.00 0.00 33 1012.1
20260506004543 27 90 3.2 11.3 0.00 0.00 0.00 36 1012.1
20260506003042 27 286 1.6 4.8 0.00 0.00 0.00 37 1012.0
20260506001545 27 212 1.6 8.0 0.00 0.00 0.00 35 1011.9
20260506000038 26 208 4.8 11.3 0.00 0.00 0.00 36 1012.0
20260505234542 26 186 4.8 11.3 0.00 0.00 0.00 38 1012.1
20260505233046 26 177 3.2 11.3 0.00 0.00 0.00 41 1012.2
20260505231545 25 188 6.4 14.5 0.00 0.00 0.00 41 1012.3
20260505230100 25 213 4.8 17.7 0.00 0.00 0.00 45 1012.4
20260505224544 25 238 4.8 14.5 0.00 0.00 0.00 45 1012.5
20260505223046 24 228 4.8 12.9 0.00 0.00 0.00 48 1012.7
20260505221550 24 186 3.2 16.1 0.00 0.00 0.00 50 1013.0
20260505220052 23 203 4.8 16.1 0.00 0.00 0.00 48 1013.2
20260505214541 23 175 6.4 22.5 0.00 0.00 0.00 46 1013.4
20260505213037 23 190 3.2 14.5 0.00 0.00 0.00 46 1013.5
20260505211554 23 221 4.8 17.7 0.00 0.00 0.00 46 1013.6
20260505210042 22 186 6.4 20.9 0.00 0.00 0.00 47 1013.9
20260505204542 22 209 4.8 14.5 0.00 0.00 0.00 50 1014.0
20260505203039 21 194 3.2 12.9 0.00 0.00 0.00 55 1014.1
20260505201537 21 211 3.2 11.3 0.00 0.00 0.00 57 1014.4
20260505200048 20 234 3.2 11.3 0.00 0.00 0.00 59 1014.5
20260505194545 20 207 4.8 9.7 0.00 0.00 0.00 60 1014.7
20260505193057 19 113 0.0 11.3 0.00 0.00 0.00 62 1014.9
20260505191544 18 198 1.6 9.7 0.00 0.00 0.00 62 1015.2
20260505190048 18 200 1.6 6.4 0.00 0.00 0.00 63 1015.3
20260505184536 17 241 1.6 11.3 0.00 0.00 0.00 66 1015.4
20260505183043 17 180 3.2 9.7 0.00 0.00 0.00 66 1015.5
20260505181549 17 155 1.6 6.4 0.00 0.00 0.00 66 1015.6
20260505180039 17 38 1.6 6.4 0.00 0.00 0.00 66 1015.6
20260505174538 16 163 1.6 6.4 0.00 0.00 0.00 69 1015.7
20260505173043 15 288 0.0 4.8 0.00 0.00 0.00 72 1015.9
20260505171543 15 281 0.0 4.8 0.00 0.00 0.00 73 1015.8
20260505170043 15 281 1.6 4.8 0.00 0.00 0.00 75 1015.9
20260505164546 15 0 0.0 3.2 0.00 0.00 0.00 76 1016.0
20260505163036 14 281 0.0 4.8 0.00 0.00 0.00 78 1016.0
20260505161543 13 0 0.0 3.2 0.00 0.00 0.00 80 1016.0
20260505153042 12 0 0.0 3.2 0.00 0.00 0.00 83 1015.9
20260505151539 12 0 0.0 1.6 0.00 0.00 0.00 85 1015.9
20260505124547 11 0 0.0 1.6 0.00 0.00 0.00 89 1014.8
20260505123045 11 0 0.0 1.6 0.00 0.00 0.00 90 1014.7
20260505121544 10 0 0.0 1.6 0.00 0.00 0.00 90 1014.6
20260505120054 10 0 0.0 0.0 0.00 0.00 0.00 91 1014.6
20260505114542 10 0 0.0 1.6 0.00 0.00 0.00 91 1014.5
20260505113042 10 0 0.0 1.6 0.00 0.00 0.00 91 1014.5
20260505111545 10 177 0.0 1.6 0.00 0.00 0.00 91 1014.5
20260505101548 10 0 0.0 1.6 0.00 0.00 0.00 89 1014.1
20260505100046 10 0 0.0 0.0 0.00 0.00 0.00 88 1014.1
20260505094544 10 0 0.0 0.0 0.00 0.00 0.00 88 1014.2
20260505093044 11 176 0.0 1.6 0.00 0.00 0.00 87 1014.3
20260505091541 11 0 0.0 3.2 0.00 0.00 0.00 86 1014.4
20260505090053 11 0 0.0 1.6 0.00 0.00 0.00 85 1014.1
20260505084550 12 0 0.0 6.4 0.00 0.00 0.00 84 1014.1
20260505083056 12 0 0.0 3.2 0.00 0.00 0.00 82 1014.1
20260505081555 13 0 1.6 3.2 0.00 0.00 0.00 81 1014.2
20260505080048 13 0 0.0 3.2 0.00 0.00 0.00 80 1014.1
20260505074542 13 0 0.0 6.4 0.00 0.00 0.00 80 1014.1
20260505073044 13 105 0.0 4.8 0.00 0.00 0.00 79 1014.1
20260505071546 13 157 3.2 8.0 0.00 0.00 0.00 78 1014.0
20260505070037 13 120 1.6 4.8 0.00 0.00 0.00 78 1013.8
20260505064537 14 110 0.0 4.8 0.00 0.00 0.00 77 1013.6
20260505063042 14 0 0.0 6.4 0.00 0.00 0.00 77 1013.6
20260505061549 14 126 1.6 11.3 0.00 0.00 0.00 76 1013.5